Flag for France Weather past 2 weeks in Le Mans, France

Now
45 °F

Overcast.


Feels Like: 43 °F
Forecast: 41 / 51 °F
Wind: 3 mph from West

Location: Le Mans Airport

Current Time: Jan 27, 2015 at 10:43:11 PM

Latest Report: Jan 27, 2015 at 10:00 PM


Visibility: N/A

Pressure: 30.36 "Hg

Humidity: 81%

Dew point: 39 °F

Location of Le MansLocation

Historic Weather in Le Mans — Graph

°F

Le Mans temperature yesterday

Maximum temperature yesterday: 50 °F (at 3:00 PM)
Minimum temperature yesterday: 41 °F (at 12:00 AM)
Average temperature yesterday: 45 °F

Past Weeks' High & Low Weather Summary

 TemperatureHumidityPressure
High54 °F (Jan 13, 3:30 AM)100% (Jan 16, 5:30 AM)30.57 "Hg (Jan 16, 5:30 AM)
Low23 °F (Jan 23, 4:30 AM)57% (Jan 24, 3:00 PM)29.56 "Hg (Jan 15, 9:30 AM)
Average39 °F84%30.04 "Hg
* Reported Jan 12 9:00 PM — Jan 27 9:30 PM, Le Mans, Weather by CustomWeather, © 2014

Note: Actual official high and low records may vary slightly from our data, if they occured in-between our weather recording intervals... More about our weather records

Advertising

Le Mans weather history for previous 24 hours

 ConditionsComfort  
Time TempWeatherWind HumidityBarometerVisibility
9:30 PM
Jan 27
45 °FOvercast.5 mph81%30.36 "HgN/A
9:00 PM45 °FOvercast.3 mph81%30.36 "HgN/A
8:30 PM45 °FOvercast.3 mph81%30.36 "HgN/A
8:00 PM45 °FOvercast.2 mph81%30.36 "HgN/A
7:30 PM45 °FOvercast.3 mph81%30.36 "HgN/A
7:00 PM45 °FOvercast.3 mph81%30.36 "HgN/A
6:30 PM46 °FOvercast.3 mph76%30.36 "HgN/A
6:00 PM46 °FOvercast.3 mph76%30.36 "HgN/A
5:30 PM46 °FMostly cloudy.2 mph76%30.36 "HgN/A
5:00 PM46 °FMore clouds than sun.3 mph76%30.36 "HgN/A
4:30 PM48 °FMostly cloudy.3 mph71%30.36 "HgN/A
4:00 PM46 °FMostly cloudy.3 mph76%30.36 "HgN/A
3:30 PM46 °FMostly cloudy.3 mph71%30.36 "HgN/A
3:00 PM48 °FMostly cloudy.6 mph66%30.39 "HgN/A
2:30 PM46 °FOvercast.6 mph66%30.39 "HgN/A
2:00 PM48 °FClear.5 mph66%30.39 "HgN/A
1:30 PM46 °FClear.6 mph71%30.39 "HgN/A
1:00 PM46 °FClear.5 mph71%30.42 "HgN/A
12:30 PM45 °FPartly sunny.5 mph76%30.42 "HgN/A
12:00 PM45 °FClear.3 mph76%30.42 "HgN/A
11:30 AM43 °FClear.3 mph81%30.42 "HgN/A
11:00 AM41 °FClear.3 mph87%30.42 "HgN/A
10:30 AM41 °FClear.No wind87%30.42 "HgN/A
10:00 AM41 °FClear.2 mph87%30.42 "HgN/A
9:30 AM41 °FClear.3 mph87%30.42 "HgN/A
9:00 AM41 °FOvercast.3 mph87%30.42 "HgN/A
8:30 AM39 °FOvercast.3 mph87%30.42 "HgN/A
8:00 AM39 °FClear.1 mph87%30.42 "HgN/A
7:30 AM37 °FClear.3 mph93%30.39 "HgN/A
7:00 AM39 °FClear.3 mph93%30.39 "HgN/A
6:30 AM39 °FPartly cloudy.3 mph87%30.39 "HgN/A
6:00 AM37 °FPassing clouds.2 mph93%30.39 "HgN/A
5:30 AM37 °FPassing clouds.2 mph93%30.39 "HgN/A
5:00 AM39 °FPassing clouds.No wind81%30.39 "HgN/A
4:30 AM39 °FPassing clouds.3 mph87%30.39 "HgN/A
3:30 AM41 °FPassing clouds.5 mph81%30.39 "HgN/A
3:00 AM39 °FClear.3 mph87%30.39 "HgN/A
2:30 AM39 °FClear.2 mph87%30.36 "HgN/A
2:00 AM39 °FClear.2 mph87%30.36 "HgN/A
1:30 AM39 °FClear.3 mph87%30.36 "HgN/A
1:00 AM41 °FClear.3 mph81%30.36 "HgN/A
12:30 AM43 °FClear.3 mph81%30.36 "HgN/A
12:00 AM43 °FClear.3 mph81%30.36 "HgN/A
11:30 PM
Jan 26
45 °FPassing clouds.6 mph76%30.36 "HgN/A
11:00 PM45 °FPassing clouds.8 mph81%30.36 "HgN/A
10:30 PM46 °FOvercast.7 mph76%30.36 "HgN/A
10:00 PM46 °FMostly cloudy.5 mph82%30.36 "HgN/A
Weather by CustomWeather, © 2014

See weather overviewHow to use our weather pages